This demonstration page uses our WeatherBlox Daily Observations layout. Learn more.

Left ArrowRight Arrow

39.12711, -84.51439

Hourly Observations for June 23, 2022

Temp ( °F °C ) Dew Point ( °F °C ) Humidity (%) Winds ( mph kmh ) Pressure ( in mb ) Visibility ( mi km ) Precip ( " mm )
12:53 am 00:53 Clear with Mist and Fog 67 19.4 67 19.4 100 100 Calm 29.98 1015 6 10 0.00 0.00
1:23 am 01:23 Mostly Clear with Mist and Fog 66 18.9 66 18.9 100 100 Calm 29.99 1016 2 3 0.00 0.00
1:25 am 01:25 Mostly Cloudy with Mist and Fog 66 18.9 66 18.9 100 100 Calm 29.98 1015 1 2 0.00 0.00
1:32 am 01:32 Mostly Cloudy with Fog 66 18.9 66 18.9 100 100 Calm 29.98 1015 1 1 0.00 0.00
1:39 am 01:39 Mostly Clear with Mist and Fog 66 18.9 66 18.9 100 100 Calm 29.98 1015 1 2 0.00 0.00
1:44 am 01:44 Mostly Clear with Mist and Fog 66 18.9 66 18.9 100 100 Calm 29.98 1015 3 5 0.00 0.00
1:53 am 01:53 Mostly Clear 65 18.3 65 18.3 100 100 Calm 29.97 1015 7 11 0.00 0.00
2:23 am 02:23 Clear with Mist and Fog 64 17.8 64 17.8 100 100 Calm 29.98 1015 2 3 0.00 0.00
2:33 am 02:33 Clear with Mist and Fog 64 17.8 64 17.8 100 100 Calm 29.98 1015 4 6 0.00 0.00
2:46 am 02:46 Clear with Mist and Fog 63 17.2 63 17.2 100 100 Calm 29.97 1015 2 2 0.00 0.00
2:53 am 02:53 Clear with Mist and Fog 64 17.8 64 17.8 100 100 Calm 29.97 1015 1 1 0.00 0.00
2:59 am 02:59 Clear with Mist and Fog 64 17.8 64 17.8 100 100 Calm 29.97 1015 3 4 0.00 0.00
3:04 am 03:04 Mostly Cloudy with Mist and Fog 62 16.7 62 16.7 100 100 Calm 29.97 1015 1 1 0.00 0.00
3:13 am 03:13 Mostly Cloudy with Fog 63 17.2 63 17.2 100 100 Calm 29.97 1015 0 0 0.00 0.00
3:32 am 03:32 Mostly Cloudy with Fog 61 16.1 61 16.1 100 100 Calm 29.98 1015 1 1 0.00 0.00
3:38 am 03:38 Partly Cloudy with Mist and Fog 62 16.7 62 16.7 100 100 Calm 29.97 1015 2 3 0.00 0.00
3:45 am 03:45 Mostly Clear with Mist and Fog 62 16.7 62 16.7 100 100 Calm 29.97 1015 4 6 0.00 0.00
3:53 am 03:53 Clear with Mist and Fog 62 16.7 62 16.7 100 100 Calm 29.96 1015 4 6 0.00 0.00
4:08 am 04:08 Clear with Mist and Fog 61 16.1 61 16.1 100 100 Calm 29.97 1015 2 3 0.00 0.00
4:18 am 04:18 Clear with Mist and Fog 60 15.6 60 15.6 100 100 Calm 29.97 1015 3 5 0.00 0.00
4:51 am 04:51 Clear with Mist and Fog 61 16 61 16 100 100 Calm 29.97 1015 2 3 0.00 0.00
4:53 am 04:53 Clear with Mist and Fog 60 15.6 60 15.6 100 100 Calm 29.96 1015 2 3 0.00 0.00
4:59 am 04:59 Clear with Mist and Fog 60 15.6 60 15.6 100 100 Calm 29.97 1015 4 6 0.00 0.00
5:12 am 05:12 Clear with Mist and Fog 60 15.6 60 15.6 100 100 Calm 29.97 1015 2 2 0.00 0.00
5:24 am 05:24 Clear with Mist and Fog 61 16.1 61 16.1 100 100 Calm 29.97 1015 3 5 0.00 0.00
5:33 am 05:33 Clear with Mist and Fog 60 15.6 60 15.6 100 100 Calm 29.97 1015 2 2 0.00 0.00
5:49 am 05:49 Clear with Mist and Fog 61 16 61 16 100 100 Calm 29.97 1015 3 4 0.00 0.00
5:53 am 05:53 Clear with Mist and Fog 60 15.6 60 15.6 100 100 Calm 29.96 1015 4 6 0.00 0.00
6:22 am 06:22 Sunny with Mist and Fog 59 15 59 15 100 100 Calm 29.98 1015 1 2 0.00 0.00
6:29 am 06:29 Sunny with Mist and Fog 60 15.6 60 15.6 100 100 Calm 29.98 1015 1 1 0.00 0.00
6:33 am 06:33 Sunny with Mist and Fog 60 15.6 60 15.6 100 100 Calm 29.98 1015 2 3 0.00 0.00
6:40 am 06:40 Sunny with Mist and Fog 60 15.6 60 15.6 100 100 Calm 29.98 1015 5 8 0.00 0.00
6:53 am 06:53 Sunny 60 15.6 60 15.6 100 100 Calm 29.97 1015 10 16 0.00 0.00
7:53 am 07:53 Sunny 66 18.9 63 17.2 90 90 Calm 29.98 1015 10 16 0.00 0.00
8:53 am 08:53 Sunny 72 22.2 61 16.1 68 68 N 5 7 29.98 1015 10 16 0.00 0.00
9:53 am 09:53 Sunny 77 25 63 17.2 62 62 NNE 5 7 29.99 1016 10 16 0.00 0.00
10:53 am 10:53 Sunny 80 26.7 64 17.8 58 58 N 9 15 29.98 1015 10 16 0.00 0.00
11:53 am 11:53 Sunny 81 27.2 64 17.8 57 57 NNE 10 17 29.99 1016 10 16 0.00 0.00
12:53 pm 12:53 Sunny 83 28.3 64 17.8 53 53 NE 9 15 29.98 1015 10 16 0.00 0.00
1:53 pm 13:53 Sunny 85 29.4 64 17.8 50 50 N 9 15 29.98 1015 10 16 0.00 0.00
2:53 pm 14:53 Sunny 85 29.4 61 16.1 45 45 N 7 11 29.96 1015 10 16 0.00 0.00
3:53 pm 15:53 Sunny 86 30 58 14.4 39 39 N 7 11 29.96 1015 10 16 0.00 0.00
4:53 pm 16:53 Sunny 87 30.6 56 13.3 35 35 N 12 19 29.95 1014 10 16 0.00 0.00
5:53 pm 17:53 Sunny 86 30 54 12.2 33 33 NNW 5 7 29.95 1014 10 16 0.00 0.00
6:53 pm 18:53 Sunny 85 29.4 55 12.8 36 36 NNE 8 13 29.95 1014 10 16 0.00 0.00
7:53 pm 19:53 Sunny 84 28.9 56 13.3 38 38 NE 3 6 29.96 1015 10 16 0.00 0.00
8:53 pm 20:53 Sunny 76 24.4 64 17.8 67 67 Calm 29.96 1015 10 16 0.00 0.00
9:53 pm 21:53 Clear 68 20 61 16.1 78 78 Calm 29.97 1015 10 16 0.00 0.00
10:53 pm 22:53 Clear 66 18.9 60 15.6 81 81 Calm 29.98 1015 10 16 0.00 0.00
11:53 pm 23:53 Clear 63 17.2 59 15 87 87 Calm 29.98 1015 10 16 0.00 0.00

Powered by AerisWeather